User: anonymous   Login
Location: Unspecified
(0.0000°N, 0.0000°E)
Time: 19:07:11
(UTC+00:00)
Language:

STARLINK-35947 - Orbit

View from above orbital plane
View from above orbital plane
View from above satellite
View from above satellite

Ground track
Ground track

The orbit is defined by the following mean orbital elements,

1 66883U          26145.40386056 +.00000000 +00000-0 +91038-3 0 00008
2 66883  53.1617  27.5447 0001224  82.1952 277.9190 15.34416912    02
Epoch (UTC): 25 May 2026 09:41:33
Eccentricity: 0.0001224
inclination: 53.1617°
perigee height: 462 km
apogee height: 463 km
right ascension of ascending node: 27.5447°
argument of perigee: 82.1952°
revolutions per day: 15.34416912
mean anomaly at epoch: 277.9190°

The dashed part of the orbit path shows where the satellite is in the earth's shadow,  

DLR